TimeCST,TemperatureF,Dew PointF,Humidity,Sea Level PressureIn,VisibilityMPH,Wind Direction,Wind SpeedMPH,Gust SpeedMPH,PrecipitationIn,Events,Conditions,WindDirDegrees,DateUTC
12:52 AM,37.0,27.0,67,30.38,10.0,SSE,6.9,-,N/A,,Clear,160,2013-11-29 06:52:00
1:52 AM,34.0,26.1,73,30.38,10.0,SSE,6.9,-,N/A,,Clear,150,2013-11-29 07:52:00
2:52 AM,34.0,26.1,73,30.38,10.0,SSE,6.9,-,N/A,,Clear,160,2013-11-29 08:52:00
3:52 AM,33.1,26.1,75,30.38,10.0,SSE,9.2,-,N/A,,Clear,160,2013-11-29 09:52:00
4:52 AM,30.9,25.0,79,30.39,10.0,SSE,9.2,-,N/A,,Clear,150,2013-11-29 10:52:00
5:52 AM,30.0,25.0,82,30.41,10.0,SE,8.1,-,N/A,,Clear,140,2013-11-29 11:52:00
6:52 AM,30.0,24.1,79,30.43,10.0,SE,6.9,-,N/A,,Clear,140,2013-11-29 12:52:00
7:52 AM,32.0,26.1,79,30.44,10.0,SSE,6.9,-,N/A,,Clear,160,2013-11-29 13:52:00
8:52 AM,39.0,28.0,65,30.44,10.0,SSE,4.6,-,N/A,,Clear,160,2013-11-29 14:52:00
9:52 AM,46.9,28.0,48,30.45,10.0,South,6.9,-,N/A,,Clear,180,2013-11-29 15:52:00
10:52 AM,51.1,32.0,48,30.43,10.0,SSW,15.0,-,N/A,,Clear,210,2013-11-29 16:52:00
11:52 AM,54.0,34.0,47,30.41,10.0,SSW,15.0,-,N/A,,Clear,200,2013-11-29 17:52:00
12:52 PM,57.0,33.1,40,30.35,10.0,South,15.0,-,N/A,,Clear,180,2013-11-29 18:52:00
1:52 PM,57.9,33.1,39,30.32,10.0,SSW,17.3,-,N/A,,Clear,200,2013-11-29 19:52:00
2:52 PM,59.0,35.1,41,30.30,10.0,South,10.4,19.6,N/A,,Clear,180,2013-11-29 20:52:00
3:52 PM,60.1,37.0,42,30.29,10.0,South,15.0,-,N/A,,Clear,180,2013-11-29 21:52:00
4:52 PM,57.9,37.0,46,30.28,10.0,South,10.4,-,N/A,,Clear,180,2013-11-29 22:52:00
5:52 PM,53.1,37.0,55,30.29,10.0,South,6.9,-,N/A,,Clear,170,2013-11-29 23:52:00
6:52 PM,50.0,37.0,61,30.29,10.0,SSE,9.2,-,N/A,,Clear,160,2013-11-30 00:52:00
7:52 PM,50.0,37.9,63,30.28,10.0,SSE,11.5,-,N/A,,Clear,160,2013-11-30 01:52:00
8:52 PM,48.9,39.0,69,30.28,10.0,SSE,11.5,-,N/A,,Clear,160,2013-11-30 02:52:00
9:52 PM,48.9,41.0,74,30.27,10.0,SSE,9.2,-,N/A,,Clear,160,2013-11-30 03:52:00
10:52 PM,51.1,41.0,68,30.27,10.0,South,12.7,-,N/A,,Clear,180,2013-11-30 04:52:00
11:52 PM,50.0,42.1,74,30.27,10.0,South,11.5,21.9,N/A,,Clear,190,2013-11-30 05:52:00